TimeCST,TemperatureF,Dew PointF,Humidity,Sea Level PressureIn,VisibilityMPH,Wind Direction,Wind SpeedMPH,Gust SpeedMPH,PrecipitationIn,Events,Conditions,WindDirDegrees,DateUTC
12:17 AM,-9.4,-18.4,65,30.27,10.0,WNW,12.7,19.6,N/A,,Overcast,300,2014-01-06 06:17:00
12:37 AM,-11.2,-20.2,64,30.27,10.0,WNW,13.8,20.7,N/A,,Overcast,300,2014-01-06 06:37:00
12:57 AM,-13.0,-22.0,64,30.27,10.0,WNW,10.4,18.4,N/A,,Overcast,300,2014-01-06 06:57:00
1:17 AM,-13.0,-22.0,64,30.27,10.0,WNW,10.4,18.4,N/A,,Overcast,300,2014-01-06 07:17:00
1:37 AM,-13.0,-22.0,64,30.27,10.0,WNW,15.0,-,N/A,,Scattered Clouds,300,2014-01-06 07:37:00
1:57 AM,-14.8,-23.8,64,30.27,10.0,WNW,11.5,18.4,N/A,,Scattered Clouds,300,2014-01-06 07:57:00
2:17 AM,-14.8,-25.6,58,30.28,10.0,WNW,9.2,-,N/A,,Overcast,300,2014-01-06 08:17:00
2:37 AM,-14.8,-25.6,58,30.28,10.0,NW,11.5,-,N/A,,Overcast,310,2014-01-06 08:37:00
2:57 AM,-14.8,-25.6,58,30.28,10.0,WNW,10.4,18.4,N/A,,Overcast,300,2014-01-06 08:57:00
3:16 AM,-16.6,-25.6,64,30.28,10.0,NW,10.4,16.1,N/A,,Overcast,310,2014-01-06 09:16:00
3:37 AM,-16.6,-25.6,64,30.28,10.0,NW,8.1,16.1,N/A,,Overcast,320,2014-01-06 09:37:00
3:57 AM,-16.6,-25.6,64,30.28,5.0,WNW,6.9,-,N/A,,Haze,300,2014-01-06 09:57:00
4:16 AM,-16.6,-25.6,64,30.29,10.0,WNW,6.9,-,N/A,,Overcast,300,2014-01-06 10:16:00
4:37 AM,-16.6,-25.6,64,30.29,10.0,WNW,9.2,-,N/A,,Overcast,300,2014-01-06 10:37:00
4:57 AM,-16.6,-25.6,64,30.29,5.0,WNW,10.4,-,N/A,,Haze,300,2014-01-06 10:57:00
5:16 AM,-16.6,-27.4,58,30.29,10.0,WNW,10.4,17.3,N/A,,Overcast,300,2014-01-06 11:16:00
5:37 AM,-18.4,-27.4,63,30.28,10.0,NW,11.5,18.4,N/A,,Scattered Clouds,310,2014-01-06 11:37:00
5:57 AM,-18.4,-27.4,63,30.28,10.0,WNW,10.4,-,N/A,,Scattered Clouds,300,2014-01-06 11:57:00
6:16 AM,-18.4,-27.4,63,30.28,10.0,WNW,10.4,-,N/A,,Scattered Clouds,290,2014-01-06 12:16:00
6:37 AM,-18.4,-27.4,63,30.28,10.0,WNW,12.7,-,N/A,,Mostly Cloudy,300,2014-01-06 12:37:00
6:57 AM,-18.4,-27.4,63,30.28,7.0,WNW,11.5,17.3,N/A,,Overcast,300,2014-01-06 12:57:00
7:16 AM,-18.4,-27.4,63,30.28,7.0,NW,12.7,16.1,N/A,,Overcast,310,2014-01-06 13:16:00
7:37 AM,-18.4,-27.4,63,30.28,10.0,WNW,13.8,18.4,N/A,,Mostly Cloudy,300,2014-01-06 13:37:00
7:57 AM,-18.4,-27.4,63,30.28,10.0,NW,10.4,19.6,N/A,,Scattered Clouds,310,2014-01-06 13:57:00
8:17 AM,-18.4,-27.4,63,30.29,10.0,WNW,12.7,18.4,N/A,,Clear,300,2014-01-06 14:17:00
8:36 AM,-18.4,-27.4,63,30.29,10.0,NW,12.7,17.3,N/A,,Clear,310,2014-01-06 14:36:00
8:57 AM,-18.4,-27.4,63,30.29,10.0,WNW,12.7,18.4,N/A,,Clear,300,2014-01-06 14:57:00
9:17 AM,-16.6,-27.4,58,30.29,10.0,WNW,11.5,-,N/A,,Clear,300,2014-01-06 15:17:00
9:37 AM,-16.6,-27.4,58,30.29,10.0,WNW,11.5,16.1,N/A,,Clear,290,2014-01-06 15:37:00
9:57 AM,-16.6,-27.4,58,30.30,10.0,WNW,11.5,17.3,N/A,,Clear,300,2014-01-06 15:57:00
10:17 AM,-14.8,-27.4,53,30.30,10.0,WNW,12.7,18.4,N/A,,Clear,300,2014-01-06 16:17:00
10:37 AM,-14.8,-25.6,58,30.29,10.0,WNW,12.7,21.9,N/A,,Scattered Clouds,300,2014-01-06 16:37:00
10:57 AM,-13.0,-23.8,59,30.29,10.0,WNW,12.7,20.7,N/A,,Scattered Clouds,290,2014-01-06 16:57:00
11:17 AM,-13.0,-23.8,59,30.28,10.0,NW,13.8,19.6,N/A,,Clear,310,2014-01-06 17:17:00
11:37 AM,-11.2,-23.8,54,30.27,10.0,WNW,10.4,18.4,N/A,,Clear,290,2014-01-06 17:37:00
11:57 AM,-9.4,-22.0,54,30.26,10.0,WNW,11.5,19.6,N/A,,Mostly Cloudy,300,2014-01-06 17:57:00
12:17 PM,-9.4,-22.0,54,30.25,10.0,WNW,13.8,-,N/A,,Mostly Cloudy,290,2014-01-06 18:17:00
12:37 PM,-9.4,-22.0,54,30.24,10.0,WNW,9.2,-,N/A,,Scattered Clouds,290,2014-01-06 18:37:00
12:57 PM,-9.4,-22.0,54,30.24,10.0,WNW,9.2,18.4,N/A,,Mostly Cloudy,290,2014-01-06 18:57:00
1:17 PM,-9.4,-22.0,54,30.23,7.0,WNW,9.2,19.6,N/A,,Overcast,290,2014-01-06 19:17:00
1:37 PM,-9.4,-22.0,54,30.23,7.0,WNW,13.8,19.6,N/A,,Overcast,290,2014-01-06 19:37:00
1:57 PM,-9.4,-22.0,54,30.23,10.0,WNW,11.5,21.9,N/A,,Mostly Cloudy,300,2014-01-06 19:57:00
2:17 PM,-9.4,-22.0,54,30.22,10.0,West,10.4,16.1,N/A,,Mostly Cloudy,280,2014-01-06 20:17:00
2:37 PM,-7.6,-20.2,54,30.23,10.0,WNW,11.5,-,N/A,,Mostly Cloudy,300,2014-01-06 20:37:00
2:51 PM,-9.4,-22.0,54,30.23,10.0,WNW,9.2,20.7,N/A,,Mostly Cloudy,300,2014-01-06 20:51:00
3:20 PM,-9.4,-20.2,59,30.24,10.0,WNW,12.7,21.9,N/A,,Scattered Clouds,290,2014-01-06 21:20:00
3:40 PM,-9.4,-22.0,54,30.24,10.0,West,12.7,20.7,N/A,,Mostly Cloudy,280,2014-01-06 21:40:00
4:00 PM,-9.4,-22.0,54,30.24,10.0,WNW,10.4,24.2,N/A,,Scattered Clouds,290,2014-01-06 22:00:00
4:07 PM,-9.4,-20.2,59,30.24,10.0,WNW,16.1,20.7,N/A,,Scattered Clouds,290,2014-01-06 22:07:00
4:17 PM,-9.4,-20.2,59,30.24,10.0,WNW,18.4,26.5,N/A,,Clear,300,2014-01-06 22:17:00
4:37 PM,-9.4,-22.0,54,30.25,10.0,WNW,13.8,24.2,N/A,,Clear,290,2014-01-06 22:37:00
4:57 PM,-9.4,-20.2,59,30.24,10.0,WNW,12.7,18.4,N/A,,Scattered Clouds,290,2014-01-06 22:57:00
5:17 PM,-9.4,-20.2,59,30.24,10.0,WNW,10.4,19.6,N/A,,Scattered Clouds,290,2014-01-06 23:17:00
5:37 PM,-9.4,-20.2,59,30.24,10.0,WNW,11.5,18.4,N/A,,Mostly Cloudy,290,2014-01-06 23:37:00
5:57 PM,-9.4,-20.2,59,30.24,10.0,WNW,10.4,16.1,N/A,,Scattered Clouds,300,2014-01-06 23:57:00
6:17 PM,-9.4,-20.2,59,30.24,10.0,WNW,13.8,18.4,N/A,,Clear,300,2014-01-07 00:17:00
6:37 PM,-9.4,-20.2,59,30.24,10.0,WNW,11.5,18.4,N/A,,Clear,300,2014-01-07 00:37:00
6:57 PM,-9.4,-20.2,59,30.24,10.0,WNW,12.7,20.7,N/A,,Mostly Cloudy,300,2014-01-07 00:57:00
7:17 PM,-9.4,-20.2,59,30.25,10.0,WNW,15.0,19.6,N/A,,Overcast,300,2014-01-07 01:17:00
7:37 PM,-9.4,-20.2,59,30.24,10.0,WNW,13.8,18.4,N/A,,Overcast,300,2014-01-07 01:37:00
7:57 PM,-9.4,-20.2,59,30.24,10.0,WNW,11.5,18.4,N/A,,Mostly Cloudy,300,2014-01-07 01:57:00
8:17 PM,-9.4,-20.2,59,30.24,10.0,WNW,11.5,17.3,N/A,,Mostly Cloudy,300,2014-01-07 02:17:00
8:37 PM,-9.4,-20.2,59,30.24,10.0,NW,15.0,-,N/A,,Scattered Clouds,310,2014-01-07 02:37:00
8:57 PM,-9.4,-18.4,65,30.23,10.0,WNW,10.4,17.3,N/A,,Clear,300,2014-01-07 02:57:00
9:17 PM,-9.4,-18.4,65,30.23,10.0,WNW,9.2,-,N/A,,Clear,300,2014-01-07 03:17:00
9:37 PM,-9.4,-18.4,65,30.23,10.0,WNW,8.1,-,N/A,,Clear,300,2014-01-07 03:37:00
9:57 PM,-9.4,-18.4,65,30.22,10.0,NW,8.1,-,N/A,,Clear,310,2014-01-07 03:57:00
10:17 PM,-9.4,-18.4,65,30.22,10.0,WNW,8.1,-,N/A,,Clear,300,2014-01-07 04:17:00
10:37 PM,-9.4,-18.4,65,30.22,10.0,WNW,9.2,-,N/A,,Clear,300,2014-01-07 04:37:00
10:57 PM,-9.4,-18.4,65,30.21,10.0,WNW,8.1,-,N/A,,Clear,300,2014-01-07 04:57:00
11:17 PM,-9.4,-18.4,65,30.21,10.0,NW,8.1,-,N/A,,Clear,310,2014-01-07 05:17:00
11:37 PM,-9.4,-18.4,65,30.21,10.0,NW,6.9,-,N/A,,Clear,310,2014-01-07 05:37:00
11:57 PM,-9.4,-18.4,65,30.22,10.0,WNW,6.9,-,N/A,,Clear,300,2014-01-07 05:57:00